Location: Laupheim
(48.2265°N, 9.8829°E)
Time: 23:01:57
(UTC+02:00)

Tiangong 2 - Visible Passes

Search period start: 24 May 2018 00:00
Search period end: 03 June 2018 00:00
Orbit: 382 x 385 km, 42.8° (Epoch: 24 May)

Date Brightness Start Highest point End Pass type
(mag) Time Alt. Az. Time Alt. Az. Time Alt. Az.
24 May 2.2 23:11:02 10° WSW 23:13:17 28° SSW 23:13:17 28° SSW visible
25 May 2.1 22:11:25 10° SW 22:14:12 28° S 22:16:22 14° ESE visible
25 May 3.4 23:47:48 10° WSW 23:48:34 15° WSW 23:48:34 15° WSW visible
26 May 2.1 22:48:02 10° WSW 22:50:50 29° S 22:51:30 26° SSE visible
27 May 2.1 21:48:20 10° WSW 21:51:09 30° S 21:53:58 10° ESE visible
27 May 2.9 23:24:58 10° WSW 23:26:32 18° SW 23:26:32 18° SW visible
28 May 2.3 22:25:05 10° WSW 22:27:45 25° S 22:29:18 17° SSE visible
29 May 3.0 23:02:15 10° WSW 23:04:13 16° SSW 23:04:13 16° SSW visible
30 May 2.7 22:02:11 10° WSW 22:04:38 21° SSW 22:06:57 11° SSE visible
31 May 3.5 22:40:06 10° SW 22:41:02 11° SSW 22:41:52 10° SSW visible
